• In Hungary
  • List of Countries
  • For 7 days
  • Water Temperature
  • Satellite Maps
  • Weather Map
  • News
  • Weather Widgets
  • user-avatar
    Login

    Hourly Weather Kalat

    Today, 23 October, Tuesday

    Time Temperature Precipitation Wind Pressure Humidity
    00:00 -9°C° 0 mm 2 mps 472 mmHg 54%
    01:00 -10°C° 0 mm 2 mps 472 mmHg 55%
    02:00 -10°C° 0 mm 2 mps 471 mmHg 55%
    03:00 -10°C° 0 mm 2 mps 471 mmHg 53%
    04:00 -10°C° 0 mm 2 mps 471 mmHg 52%
    05:00 -9°C° 0 mm 2 mps 471 mmHg 51%
    06:00 -9°C° 0 mm 2 mps 472 mmHg 51%
    07:00 -9°C° 0 mm 2 mps 472 mmHg 51%
    08:00 -8°C° 0 mm 2 mps 473 mmHg 51%
    09:00 -7°C° 0 mm 2 mps 474 mmHg 44%
    10:00 -3°C° 0 mm 1 mps 475 mmHg 38%
    11:00 -2°C° 0 mm 1 mps 476 mmHg 31%
    12:00 -1°C° 0 mm 1 mps 476 mmHg 32%
    13:00 -1°C° 0 mm 1 mps 476 mmHg 34%
    14:00 0°C° 0 mm 1 mps 476 mmHg 35%
    15:00 -2°C° 0 mm 1 mps 475 mmHg 38%
    16:00 -3°C° 0 mm 1 mps 474 mmHg 42%
    17:00 -4°C° 0 mm 1 mps 474 mmHg 45%
    18:00 -6°C° 0 mm 1 mps 473 mmHg 45%
    19:00 -6°C° 0 mm 1 mps 473 mmHg 45%
    20:00 -8°C° 0 mm 2 mps 472 mmHg 45%
    21:00 -8°C° 0 mm 2 mps 472 mmHg 44%
    22:00 -8°C° 0 mm 2 mps 472 mmHg 43%
    23:00 -8°C° 0 mm 2 mps 472 mmHg 42%

    Tomorrow, 24 October, Wednesday

    Time Temperature Precipitation Wind Pressure Humidity
    00:00 -8°C° 0 mm 2 mps 472 mmHg 41%
    01:00 -9°C° 0 mm 2 mps 472 mmHg 40%
    02:00 -9°C° 0 mm 2 mps 472 mmHg 39%
    03:00 -9°C° 0 mm 2 mps 472 mmHg 37%
    04:00 -9°C° 0 mm 2 mps 472 mmHg 36%
    05:00 -9°C° 0 mm 2 mps 472 mmHg 35%
    06:00 -8°C° 0 mm 2 mps 472 mmHg 35%
    07:00 -7°C° 0 mm 2 mps 473 mmHg 36%
    08:00 -6°C° 0 mm 1 mps 474 mmHg 36%
    09:00 -3°C° 0 mm 1 mps 475 mmHg 33%
    10:00 -2°C° 0 mm 1 mps 476 mmHg 29%
    11:00 -1°C° 0 mm 1 mps 477 mmHg 26%
    12:00 0°C° 0 mm 1 mps 477 mmHg 29%
    13:00 0°C° 0 mm 1 mps 477 mmHg 32%
    14:00 0°C° 0 mm 1 mps 477 mmHg 35%
    15:00 -1°C° 0 mm 1 mps 476 mmHg 39%
    16:00 -2°C° 0 mm 1 mps 475 mmHg 43%
    17:00 -4°C° 0 mm 0 mps 474 mmHg 46%
    18:00 -4°C° 0 mm 1 mps 474 mmHg 47%
    19:00 -4°C° 0 mm 1 mps 474 mmHg 47%
    20:00 -6°C° 0 mm 1 mps 473 mmHg 47%
    21:00 -7°C° 0 mm 2 mps 473 mmHg 48%
    22:00 -8°C° 0 mm 2 mps 473 mmHg 48%
    23:00 -8°C° 0 mm 2 mps 473 mmHg 48%

    Day after tomorrow, 25 October, Thursday

    Time Temperature Precipitation Wind Pressure Humidity
    00:00 -8°C° 0 mm 2 mps 473 mmHg 48%
    01:00 -8°C° 0 mm 2 mps 473 mmHg 49%
    02:00 -8°C° 0 mm 2 mps 473 mmHg 49%
    03:00 -8°C° 0 mm 2 mps 473 mmHg 49%
    04:00 -8°C° 0 mm 2 mps 473 mmHg 49%
    05:00 -8°C° 0 mm 2 mps 473 mmHg 49%
    06:00 -7°C° 0 mm 2 mps 473 mmHg 49%
    07:00 -7°C° 0 mm 2 mps 474 mmHg 49%
    08:00 -6°C° 0 mm 2 mps 475 mmHg 49%
    09:00 -3°C° 0 mm 1 mps 476 mmHg 48%
    10:00 -1°C° 0 mm 1 mps 477 mmHg 46%
    11:00 0°C° 0 mm 1 mps 478 mmHg 45%
    12:00 0°C° 0 mm 1 mps 477 mmHg 48%
    13:00 0°C° 0 mm 1 mps 477 mmHg 50%
    14:00 +1°C° 0 mm 1 mps 477 mmHg 53%
    15:00 0°C° 0 mm 1 mps 477 mmHg 57%
    16:00 -1°C° 0 mm 1 mps 476 mmHg 61%
    17:00 -2°C° 0 mm 1 mps 476 mmHg 65%
    18:00 -2°C° 0 mm 1 mps 476 mmHg 66%
    19:00 -3°C° 0 mm 1 mps 475 mmHg 67%
    20:00 -4°C° 0 mm 1 mps 475 mmHg 68%
    21:00 -4°C° 0 mm 1 mps 475 mmHg 68%
    22:00 -6°C° 0 mm 2 mps 475 mmHg 68%
    23:00 -7°C° 0 mm 2 mps 475 mmHg 68%

    26 October, Friday

    Time Temperature Precipitation Wind Pressure Humidity
    00:00 -7°C° 0 mm 2 mps 475 mmHg 68%
    01:00 -7°C° 0 mm 2 mps 475 mmHg 67%
    02:00 -7°C° 0 mm 2 mps 475 mmHg 67%
    03:00 -7°C° 0 mm 2 mps 475 mmHg 64%
    04:00 -7°C° 0 mm 2 mps 475 mmHg 62%
    05:00 -7°C° 0 mm 2 mps 474 mmHg 60%
    06:00 -7°C° 0 mm 2 mps 475 mmHg 56%
    07:00 -6°C° 0 mm 2 mps 476 mmHg 53%
    08:00 -5°C° 0 mm 2 mps 477 mmHg 49%
    09:00 -2°C° 0 mm 1 mps 478 mmHg 48%
    10:00 0°C° 0 mm 1 mps 479 mmHg 46%
    11:00 +1°C° 0 mm 1 mps 480 mmHg 44%
    12:00 +1°C° 0 mm 1 mps 480 mmHg 47%
    13:00 +2°C° 0 mm 1 mps 479 mmHg 49%
    14:00 +1°C° 0 mm 2 mps 479 mmHg 52%
    15:00 +1°C° 0 mm 1 mps 479 mmHg 55%
    16:00 0°C° 0 mm 1 mps 478 mmHg 59%
    17:00 0°C° 0 mm 1 mps 477 mmHg 63%
    18:00 -3°C° 0 mm 2 mps 477 mmHg 64%
    19:00 -4°C° 0 mm 2 mps 477 mmHg 65%
    20:00 -4°C° 0 mm 2 mps 477 mmHg 65%
    21:00 -5°C° 0 mm 2 mps 477 mmHg 64%
    22:00 -5°C° 0 mm 2 mps 477 mmHg 63%
    23:00 -5°C° 0 mm 2 mps 477 mmHg 62%

    27 October, Saturday

    Time Temperature Precipitation Wind Pressure Humidity
    00:00 -5°C° 0 mm 2 mps 476 mmHg 62%
    01:00 -5°C° 0 mm 2 mps 476 mmHg 62%
    02:00 -5°C° 0 mm 2 mps 476 mmHg 61%
    03:00 -5°C° 0 mm 2 mps 476 mmHg 61%
    04:00 -5°C° 0 mm 2 mps 476 mmHg 61%
    05:00 -5°C° 0 mm 2 mps 476 mmHg 61%
    06:00 -5°C° 0 mm 2 mps 477 mmHg 60%
    07:00 -4°C° 0 mm 2 mps 477 mmHg 59%
    08:00 -3°C° 0 mm 2 mps 478 mmHg 59%
    09:00 -2°C° 0 mm 2 mps 479 mmHg 55%
    10:00 +1°C° 0 mm 2 mps 480 mmHg 52%
    11:00 +3°C° 0 mm 2 mps 481 mmHg 49%
    12:00 +3°C° 0 mm 2 mps 481 mmHg 49%
    13:00 +3°C° 0 mm 2 mps 481 mmHg 49%
    14:00 +4°C° 0 mm 2 mps 481 mmHg 49%
    15:00 +3°C° 0 mm 2 mps 480 mmHg 51%
    16:00 +1°C° 0 mm 2 mps 479 mmHg 53%
    17:00 -1°C° 0 mm 2 mps 479 mmHg 55%
    18:00 -2°C° 0 mm 2 mps 478 mmHg 56%
    19:00 -3°C° 0 mm 2 mps 478 mmHg 58%
    20:00 -3°C° 0 mm 2 mps 478 mmHg 59%
    21:00 -3°C° 0 mm 2 mps 478 mmHg 60%
    22:00 -4°C° 0 mm 2 mps 478 mmHg 60%
    23:00 -4°C° 0 mm 2 mps 478 mmHg 60%

    28 October, Sunday

    Time Temperature Precipitation Wind Pressure Humidity
    00:00 -4°C° 0 mm 2 mps 478 mmHg 61%
    01:00 -4°C° 0 mm 2 mps 478 mmHg 62%
    02:00 -4°C° 0 mm 2 mps 478 mmHg 64%
    03:00 -4°C° 0 mm 2 mps 478 mmHg 66%
    04:00 -4°C° 0 mm 2 mps 478 mmHg 68%
    05:00 -5°C° 0 mm 2 mps 478 mmHg 70%
    06:00 -4°C° 0 mm 2 mps 478 mmHg 70%
    07:00 -4°C° 0 mm 2 mps 478 mmHg 70%
    08:00 -3°C° 0 mm 2 mps 479 mmHg 70%
    09:00 -2°C° 0 mm 2 mps 480 mmHg 67%
    10:00 +2°C° 0 mm 1 mps 481 mmHg 65%
    11:00 +3°C° 0 mm 1 mps 482 mmHg 62%
    12:00 +4°C° 0 mm 1 mps 482 mmHg 62%
    13:00 +3°C° 0 mm 2 mps 482 mmHg 62%
    14:00 +3°C° 0 mm 2 mps 482 mmHg 62%
    15:00 +2°C° 0 mm 2 mps 481 mmHg 65%
    16:00 +1°C° 0 mm 2 mps 480 mmHg 68%
    17:00 -1°C° 0 mm 2 mps 479 mmHg 71%
    18:00 0°C° 0 mm 1 mps 479 mmHg 74%
    19:00 0°C° 0 mm 1 mps 479 mmHg 76%
    20:00 -1°C° 0 mm 1 mps 479 mmHg 79%
    21:00 -1°C° 0 mm 1 mps 478 mmHg 78%
    22:00 -1°C° 0 mm 1 mps 478 mmHg 76%
    23:00 -1°C° 0 mm 1 mps 478 mmHg 75%

    29 October, Monday

    Time Temperature Precipitation Wind Pressure Humidity
    00:00 -2°C° 0 mm 1 mps 478 mmHg 73%
    01:00 -2°C° 0 mm 1 mps 478 mmHg 71%
    02:00 -2°C° 0 mm 1 mps 477 mmHg 69%
    03:00 -2°C° 0 mm 1 mps 477 mmHg 69%
    04:00 -2°C° 0 mm 1 mps 477 mmHg 68%
    05:00 -2°C° 0 mm 1 mps 477 mmHg 67%
    06:00 -1°C° 0 mm 1 mps 478 mmHg 65%
    07:00 -1°C° 0 mm 1 mps 478 mmHg 63%
    08:00 0°C° 0 mm 1 mps 479 mmHg 61%
    09:00 +1°C° 0 mm 1 mps 479 mmHg 60%
    10:00 +2°C° 0 mm 1 mps 480 mmHg 59%
    11:00 +2°C° 0 mm 2 mps 481 mmHg 57%
    12:00 +2°C° 0.1 mm 2 mps 480 mmHg 61%
    13:00 +2°C° 0.1 mm 1 mps 480 mmHg 65%
    14:00 +2°C° 0.1 mm 1 mps 480 mmHg 69%
    15:00 +2°C° 0.2 mm 1 mps 479 mmHg 72%
    16:00 +1°C° 0.2 mm 1 mps 479 mmHg 75%
    17:00 +1°C° 0.2 mm 1 mps 479 mmHg 78%
    18:00 0°C° 0.2 mm 1 mps 479 mmHg 80%
    19:00 0°C° 0.2 mm 1 mps 479 mmHg 83%
    20:00 -1°C° 0.2 mm 1 mps 478 mmHg 86%
    21:00 -2°C° 0.2 mm 0 mps 478 mmHg 86%
    22:00 -2°C° 0.2 mm 0 mps 478 mmHg 86%
    23:00 -2°C° 0.2 mm 0 mps 478 mmHg 86%
    Show more